Location: Greenwich
(51.4790°N, 0.0090°E)
Time: 03:35:47
(UTC+01:00)

Tiangong - Pass Details

Date: 01 October 2021
Orbit: 382 x 384 km, 41.5° (Epoch: 18 October)

Event Time Altitude Azimuth Distance (km) Brightness Sun altitude
Exits shadow 04:48:42 10° 151° (SSE) 1,388 3.9 -21.0°
Drops below altitude 10° 04:48:46 10° 149° (SSE) 1,397 4.0 -20.9°
Sets 04:52:07 0° 111° (ESE) 2,250 5.7 -20.5°
